SWA3586 KSAT-KDEN

Flight info

Callsign SWA3586
Flight time 1h 53m
Altitude 40000
Route YODUH2 PRTZY DUMPS DOGIN ZIGEE NIIXX4
Aircraft B737/M-SADE2E3GIJ4RWZ/LB1D1

Departure

Time 2026-04-25 15:14
Airport San Antonio International Airport (KSAT)

Arrival

Time 2026-04-25 17:07
Airport Denver International Airport (KDEN)
Time Latitude Longitude Altitude Speed Heading
2026-04-25 14:38 29.52734 -98.47089 797 ft 0 kts 146°
2026-04-25 15:02 29.52745 -98.47097 797 ft 4 kts 146°
2026-04-25 15:02 29.52764 -98.47112 797 ft 4 kts 137°
2026-04-25 15:02 29.52774 -98.47134 797 ft 4 kts 73°
2026-04-25 15:02 29.52762 -98.47161 797 ft 4 kts 60°
2026-04-25 15:03 29.52759 -98.47167 797 ft 0 kts 62°
2026-04-25 15:07 29.52761 -98.47162 797 ft 2 kts 62°
2026-04-25 15:07 29.52779 -98.47135 797 ft 7 kts 46°
2026-04-25 15:08 29.52807 -98.47104 797 ft 9 kts 44°
2026-04-25 15:08 29.52860 -98.47059 797 ft 10 kts
2026-04-25 15:08 29.52924 -98.47044 797 ft 10 kts 20°
2026-04-25 15:08 29.52981 -98.47078 797 ft 10 kts 312°
2026-04-25 15:09 29.53033 -98.47144 797 ft 12 kts 312°
2026-04-25 15:09 29.53095 -98.47224 797 ft 14 kts 311°
2026-04-25 15:09 29.53246 -98.47419 797 ft 18 kts 311°
2026-04-25 15:10 29.53332 -98.47530 797 ft 19 kts 313°
2026-04-25 15:10 29.53425 -98.47649 797 ft 21 kts 312°
2026-04-25 15:10 29.53614 -98.47892 797 ft 20 kts 310°
2026-04-25 15:11 29.53704 -98.48009 797 ft 19 kts 310°
2026-04-25 15:11 29.53791 -98.48121 797 ft 19 kts 311°
2026-04-25 15:11 29.53876 -98.48231 797 ft 18 kts 312°
2026-04-25 15:12 29.54038 -98.48437 797 ft 17 kts 311°
2026-04-25 15:12 29.54112 -98.48533 797 ft 15 kts 311°
2026-04-25 15:12 29.54165 -98.48594 797 ft 9 kts 325°
2026-04-25 15:12 29.54202 -98.48604 797 ft 8 kts
2026-04-25 15:13 29.54259 -98.48552 797 ft 7 kts 65°
2026-04-25 15:13 29.54232 -98.48500 797 ft 6 kts 132°
2026-04-25 15:13 29.54048 -98.48263 797 ft 75 kts 131°
2026-04-25 15:14 29.53565 -98.47640 797 ft 134 kts 131°
2026-04-25 15:14 29.52838 -98.46709 940 ft 168 kts 132°
2026-04-25 15:14 29.52060 -98.45714 1574 ft 175 kts 133°
2026-04-25 15:14 29.51228 -98.44640 2208 ft 180 kts 131°
2026-04-25 15:15 29.50327 -98.43456 2446 ft 209 kts 132°
2026-04-25 15:15 29.49440 -98.42017 2617 ft 238 kts 110°
2026-04-25 15:15 29.49423 -98.40030 2948 ft 264 kts 72°
2026-04-25 15:15 29.50510 -98.38299 3580 ft 276 kts 38°
2026-04-25 15:16 29.52239 -98.37397 4351 ft 280 kts 12°
2026-04-25 15:16 29.54181 -98.37265 4826 ft 282 kts 355°
2026-04-25 15:16 29.58130 -98.37910 5927 ft 288 kts 351°
2026-04-25 15:17 29.62114 -98.38610 7886 ft 292 kts 352°
2026-04-25 15:17 29.64133 -98.38932 8860 ft 294 kts 352°
2026-04-25 15:17 29.66173 -98.39242 9746 ft 298 kts 352°
2026-04-25 15:18 29.68246 -98.39547 10549 ft 306 kts 352°
2026-04-25 15:18 29.72837 -98.40205 11021 ft 357 kts 352°
2026-04-25 15:18 29.75364 -98.40564 11453 ft 371 kts 352°
2026-04-25 15:19 29.77938 -98.40925 12349 ft 370 kts 352°
2026-04-25 15:19 29.79635 -98.41164 12974 ft 369 kts 351°
2026-04-25 15:19 29.83046 -98.41644 13873 ft 377 kts 351°
2026-04-25 15:19 29.85680 -98.41945 14519 ft 384 kts 355°
2026-04-25 15:20 29.88366 -98.41797 15192 ft 390 kts
2026-04-25 15:20 29.91077 -98.41430 15857 ft 394 kts
2026-04-25 15:20 29.93814 -98.41034 16481 ft 399 kts
2026-04-25 15:20 29.96588 -98.40644 17101 ft 403 kts
2026-04-25 15:21 29.99386 -98.40271 17700 ft 407 kts
2026-04-25 15:21 30.02210 -98.39907 18280 ft 410 kts
2026-04-25 15:21 30.05058 -98.39682 18850 ft 410 kts 354°
2026-04-25 15:21 30.07876 -98.40087 19427 ft 407 kts 343°
2026-04-25 15:22 30.10569 -98.41073 20014 ft 404 kts 332°
2026-04-25 15:22 30.13089 -98.42509 20582 ft 405 kts 329°
2026-04-25 15:22 30.15595 -98.44023 21118 ft 407 kts 328°
2026-04-25 15:22 30.18106 -98.45559 21640 ft 410 kts 328°
2026-04-25 15:23 30.20602 -98.47083 22142 ft 411 kts 328°
2026-04-25 15:23 30.23180 -98.48648 22593 ft 415 kts 328°
2026-04-25 15:23 30.25746 -98.50195 23059 ft 417 kts 328°
2026-04-25 15:23 30.28330 -98.51744 23473 ft 420 kts 328°
2026-04-25 15:24 30.30896 -98.53279 23887 ft 422 kts 328°
2026-04-25 15:24 30.33510 -98.54840 24299 ft 424 kts 328°
2026-04-25 15:24 30.36141 -98.56412 24711 ft 426 kts 328°
2026-04-25 15:24 30.37922 -98.57475 25023 ft 426 kts 328°
2026-04-25 15:25 30.41410 -98.59559 25614 ft 426 kts 328°
2026-04-25 15:25 30.44051 -98.61139 26019 ft 428 kts 328°
2026-04-25 15:25 30.46698 -98.62724 26404 ft 429 kts 327°
2026-04-25 15:25 30.49359 -98.64319 26781 ft 430 kts 327°
2026-04-25 15:26 30.52022 -98.65915 27147 ft 431 kts 327°
2026-04-25 15:26 30.54659 -98.67493 27530 ft 432 kts 327°
2026-04-25 15:26 30.57370 -98.69121 27866 ft 433 kts 327°
2026-04-25 15:26 30.60017 -98.70712 28201 ft 434 kts 327°
2026-04-25 15:27 30.62702 -98.72326 28547 ft 435 kts 327°
2026-04-25 15:27 30.65390 -98.73943 28871 ft 435 kts 327°
2026-04-25 15:27 30.70743 -98.77163 29773 ft 429 kts 326°
2026-04-25 15:28 30.73378 -98.78747 30349 ft 425 kts 326°
2026-04-25 15:28 30.75997 -98.80323 30809 ft 423 kts 326°
2026-04-25 15:28 30.78605 -98.81895 31169 ft 422 kts 326°
2026-04-25 15:28 30.81218 -98.83477 31487 ft 424 kts 326°
2026-04-25 15:29 30.83826 -98.85056 31926 ft 421 kts 326°
2026-04-25 15:29 30.86414 -98.86620 32415 ft 418 kts 326°
2026-04-25 15:29 30.88957 -98.88157 32860 ft 415 kts 326°
2026-04-25 15:29 30.91515 -98.89704 33242 ft 414 kts 325°
2026-04-25 15:30 30.94067 -98.91250 33611 ft 412 kts 325°
2026-04-25 15:30 30.96606 -98.92788 33986 ft 410 kts 325°
2026-04-25 15:30 30.99129 -98.94319 34334 ft 409 kts 325°
2026-04-25 15:30 31.01649 -98.95848 34633 ft 408 kts 325°
2026-04-25 15:31 31.04161 -98.97372 34974 ft 406 kts 325°
2026-04-25 15:31 31.06665 -98.98892 35344 ft 403 kts 325°
2026-04-25 15:31 31.09143 -99.00398 35680 ft 401 kts 324°
2026-04-25 15:31 31.11614 -99.01901 35950 ft 400 kts 324°
2026-04-25 15:32 31.14082 -99.03403 36187 ft 400 kts 324°
2026-04-25 15:32 31.16544 -99.04903 36486 ft 398 kts 324°
2026-04-25 15:32 31.18960 -99.06374 36785 ft 396 kts 324°
2026-04-25 15:33 31.23809 -99.09330 37461 ft 389 kts 324°
2026-04-25 15:33 31.26191 -99.10783 37896 ft 383 kts 324°
2026-04-25 15:33 31.28537 -99.12214 38219 ft 379 kts 324°
2026-04-25 15:33 31.30876 -99.13645 38383 ft 380 kts 324°
2026-04-25 15:34 31.33214 -99.15076 38547 ft 379 kts 323°
2026-04-25 15:34 31.35557 -99.16508 38681 ft 379 kts 324°
2026-04-25 15:34 31.37894 -99.17937 38857 ft 379 kts 323°
2026-04-25 15:34 31.39473 -99.18903 38922 ft 380 kts 323°
2026-04-25 15:35 31.44937 -99.22254 39229 ft 381 kts 323°
2026-04-25 15:35 31.47289 -99.23696 39333 ft 382 kts 323°
2026-04-25 15:35 31.49649 -99.25145 39440 ft 383 kts 323°
2026-04-25 15:36 31.54379 -99.28051 39658 ft 384 kts 323°
2026-04-25 15:36 31.56745 -99.29506 39786 ft 384 kts 323°
2026-04-25 15:36 31.59117 -99.30965 39854 ft 386 kts 323°
2026-04-25 15:37 31.63889 -99.33904 39867 ft 386 kts 323°
2026-04-25 15:37 31.68608 -99.36809 39867 ft 384 kts 323°
2026-04-25 15:38 31.73324 -99.39717 39869 ft 382 kts 323°
2026-04-25 15:38 31.78021 -99.42619 39865 ft 380 kts 323°
2026-04-25 15:39 31.82698 -99.45513 39870 ft 379 kts 323°
2026-04-25 15:39 31.87366 -99.48405 39872 ft 379 kts 323°
2026-04-25 15:40 31.90465 -99.50327 39872 ft 380 kts 323°
2026-04-25 15:40 31.96711 -99.54203 39873 ft 381 kts 323°
2026-04-25 15:41 32.01420 -99.57131 39860 ft 383 kts 323°
2026-04-25 15:41 32.06147 -99.60074 39866 ft 385 kts 323°
2026-04-25 15:42 32.10899 -99.63033 39857 ft 387 kts 323°
2026-04-25 15:42 32.15669 -99.66006 39849 ft 388 kts 323°
2026-04-25 15:43 32.20440 -99.68982 39846 ft 388 kts 323°
2026-04-25 15:43 32.25218 -99.71968 39838 ft 388 kts 323°
2026-04-25 15:44 32.29989 -99.74954 39822 ft 388 kts 323°
2026-04-25 15:44 32.34757 -99.77940 39813 ft 386 kts 323°
2026-04-25 15:45 32.39482 -99.80907 39810 ft 386 kts 323°
2026-04-25 15:45 32.42659 -99.82905 39800 ft 386 kts 323°
2026-04-25 15:46 32.48973 -99.86877 39796 ft 385 kts 322°
2026-04-25 15:46 32.53649 -99.89875 39796 ft 385 kts 322°
2026-04-25 15:47 32.58349 -99.92909 39805 ft 384 kts 322°
2026-04-25 15:47 32.63050 -99.95944 39811 ft 384 kts 322°
2026-04-25 15:48 32.67750 -99.98980 39828 ft 385 kts 322°
2026-04-25 15:48 32.72425 -100.02001 39833 ft 385 kts 322°
2026-04-25 15:49 32.77140 -100.05052 39828 ft 386 kts 322°
2026-04-25 15:49 32.81866 -100.08112 39834 ft 387 kts 322°
2026-04-25 15:50 32.86595 -100.11179 39843 ft 388 kts 322°
2026-04-25 15:50 32.91342 -100.14264 39842 ft 389 kts 322°
2026-04-25 15:51 32.94496 -100.16313 39847 ft 390 kts 322°
2026-04-25 15:51 33.00875 -100.20464 39844 ft 391 kts 322°
2026-04-25 15:52 33.05652 -100.23575 39849 ft 392 kts 322°
2026-04-25 15:52 33.10379 -100.26660 39836 ft 393 kts 322°
2026-04-25 15:53 33.15172 -100.29792 39841 ft 393 kts 322°
2026-04-25 15:53 33.19975 -100.32935 39853 ft 393 kts 322°
2026-04-25 15:54 33.24770 -100.36076 39855 ft 393 kts 322°
2026-04-25 15:54 33.29571 -100.39224 39853 ft 393 kts 322°
2026-04-25 15:55 33.34374 -100.42378 39839 ft 394 kts 322°
2026-04-25 15:55 33.38367 -100.45005 39850 ft 394 kts 322°
2026-04-25 15:56 33.43169 -100.48166 39842 ft 394 kts 322°
2026-04-25 15:56 33.47946 -100.51313 39854 ft 394 kts 322°
2026-04-25 15:57 33.52748 -100.54480 39862 ft 393 kts 322°
2026-04-25 15:57 33.57541 -100.57650 39861 ft 393 kts 322°
2026-04-25 15:58 33.62335 -100.60821 39857 ft 393 kts 322°
2026-04-25 15:58 33.67131 -100.63998 39862 ft 393 kts 322°
2026-04-25 15:59 33.71916 -100.67173 39854 ft 394 kts 322°
2026-04-25 15:59 33.76683 -100.70339 39857 ft 394 kts 322°
2026-04-25 16:00 33.80765 -100.72935 39850 ft 399 kts 325°
2026-04-25 16:00 33.86695 -100.76069 39858 ft 401 kts 327°
2026-04-25 16:01 33.91834 -100.78710 39847 ft 401 kts 327°
2026-04-25 16:01 33.96952 -100.81374 39851 ft 400 kts 326°
2026-04-25 16:02 34.02044 -100.84053 39843 ft 400 kts 326°
2026-04-25 16:02 34.07144 -100.86748 39847 ft 400 kts 326°
2026-04-25 16:03 34.12246 -100.89452 39845 ft 401 kts 326°
2026-04-25 16:03 34.17357 -100.92165 39843 ft 401 kts 326°
2026-04-25 16:04 34.22444 -100.94866 39844 ft 402 kts 326°
2026-04-25 16:04 34.27533 -100.97570 39845 ft 403 kts 326°
2026-04-25 16:05 34.32672 -101.00305 39841 ft 404 kts 326°
2026-04-25 16:06 34.40399 -101.04424 39839 ft 405 kts 326°
2026-04-25 16:06 34.45562 -101.07182 39842 ft 405 kts 326°
2026-04-25 16:07 34.50725 -101.09944 39844 ft 405 kts 326°
2026-04-25 16:07 34.55883 -101.12705 39842 ft 405 kts 326°
2026-04-25 16:08 34.61028 -101.15465 39844 ft 404 kts 326°
2026-04-25 16:08 34.66139 -101.18209 39856 ft 404 kts 326°
2026-04-25 16:09 34.71282 -101.20975 39851 ft 404 kts 326°
2026-04-25 16:09 34.76430 -101.23748 39856 ft 405 kts 326°
2026-04-25 16:10 34.81577 -101.26523 39854 ft 405 kts 326°
2026-04-25 16:10 34.86735 -101.29309 39852 ft 405 kts 326°
2026-04-25 16:11 34.91845 -101.32072 39856 ft 406 kts 326°
2026-04-25 16:11 34.97008 -101.34867 39863 ft 406 kts 326°
2026-04-25 16:12 35.02150 -101.37655 39860 ft 406 kts 326°
2026-04-25 16:12 35.07320 -101.40463 39859 ft 407 kts 326°
2026-04-25 16:13 35.12491 -101.43274 39871 ft 407 kts 326°
2026-04-25 16:13 35.17670 -101.46094 39870 ft 407 kts 326°
2026-04-25 16:14 35.22854 -101.48922 39870 ft 408 kts 326°
2026-04-25 16:14 35.28041 -101.51754 39869 ft 409 kts 326°
2026-04-25 16:15 35.33234 -101.54590 39873 ft 409 kts 326°
2026-04-25 16:15 35.38426 -101.57433 39867 ft 409 kts 326°
2026-04-25 16:16 35.43627 -101.60286 39872 ft 409 kts 326°
2026-04-25 16:16 35.48797 -101.63126 39873 ft 410 kts 326°
2026-04-25 16:17 35.53974 -101.65973 39874 ft 411 kts 326°
2026-04-25 16:17 35.59197 -101.68850 39870 ft 412 kts 326°
2026-04-25 16:18 35.64432 -101.71737 39871 ft 412 kts 326°
2026-04-25 16:18 35.69668 -101.74628 39878 ft 412 kts 326°
2026-04-25 16:19 35.74892 -101.77517 39877 ft 412 kts 326°
2026-04-25 16:19 35.80086 -101.80394 39894 ft 412 kts 326°
2026-04-25 16:20 35.87937 -101.84749 39898 ft 412 kts 326°
2026-04-25 16:21 35.95787 -101.89113 39908 ft 412 kts 326°
2026-04-25 16:21 36.01008 -101.92022 39908 ft 412 kts 326°
2026-04-25 16:22 36.06207 -101.94925 39906 ft 413 kts 326°
2026-04-25 16:22 36.11447 -101.97854 39896 ft 413 kts 326°
2026-04-25 16:23 36.16643 -102.00759 39897 ft 413 kts 326°
2026-04-25 16:23 36.21875 -102.03689 39901 ft 412 kts 326°
2026-04-25 16:24 36.27088 -102.06614 39906 ft 411 kts 326°
2026-04-25 16:24 36.32303 -102.09546 39908 ft 411 kts 326°
2026-04-25 16:25 36.37485 -102.12463 39914 ft 411 kts 326°
2026-04-25 16:25 36.42700 -102.15405 39924 ft 411 kts 326°
2026-04-25 16:26 36.47918 -102.18349 39932 ft 412 kts 326°
2026-04-25 16:26 36.53138 -102.21299 39939 ft 412 kts 326°
2026-04-25 16:27 36.58338 -102.24244 39934 ft 413 kts 326°
2026-04-25 16:27 36.63575 -102.27215 39934 ft 414 kts 326°
2026-04-25 16:28 36.68817 -102.30191 39946 ft 414 kts 326°
2026-04-25 16:28 36.74076 -102.33183 39941 ft 416 kts 326°
2026-04-25 16:29 36.79302 -102.36157 39935 ft 416 kts 326°
2026-04-25 16:29 36.84578 -102.39167 39935 ft 417 kts 326°
2026-04-25 16:30 36.89859 -102.42187 39936 ft 417 kts 327°
2026-04-25 16:30 36.95109 -102.45191 39934 ft 418 kts 327°
2026-04-25 16:31 37.00396 -102.48219 39934 ft 418 kts 327°
2026-04-25 16:31 37.05696 -102.51260 39941 ft 418 kts 327°
2026-04-25 16:32 37.10989 -102.54302 39931 ft 418 kts 327°
2026-04-25 16:32 37.16245 -102.57328 39942 ft 418 kts 327°
2026-04-25 16:33 37.21534 -102.60379 39932 ft 419 kts 327°
2026-04-25 16:33 37.26808 -102.63425 39936 ft 418 kts 327°
2026-04-25 16:34 37.32106 -102.66490 39935 ft 419 kts 327°
2026-04-25 16:34 37.37410 -102.69563 39936 ft 419 kts 327°
2026-04-25 16:35 37.42635 -102.72595 39942 ft 419 kts 327°
2026-04-25 16:35 37.47950 -102.75684 39958 ft 419 kts 327°
2026-04-25 16:36 37.53225 -102.78740 39948 ft 420 kts 328°
2026-04-25 16:36 37.58625 -102.81652 39958 ft 422 kts 329°
2026-04-25 16:37 37.64022 -102.84498 39952 ft 422 kts 329°
2026-04-25 16:37 37.69456 -102.87389 39960 ft 423 kts 329°
2026-04-25 16:38 37.74878 -102.90296 39966 ft 422 kts 329°
2026-04-25 16:38 37.80256 -102.93189 39955 ft 423 kts 329°
2026-04-25 16:39 37.85681 -102.96115 39965 ft 423 kts 329°
2026-04-25 16:39 37.91112 -102.99048 39968 ft 423 kts 329°
2026-04-25 16:40 37.96503 -103.01961 39957 ft 423 kts 329°
2026-04-25 16:40 38.01924 -103.04897 39965 ft 422 kts 329°
2026-04-25 16:41 38.07267 -103.07797 39973 ft 423 kts 329°
2026-04-25 16:41 38.15377 -103.12205 39975 ft 423 kts 329°
2026-04-25 16:42 38.20804 -103.15161 39971 ft 424 kts 329°
2026-04-25 16:42 38.26212 -103.18112 39972 ft 425 kts 329°
2026-04-25 16:43 38.31666 -103.21092 39969 ft 426 kts 329°
2026-04-25 16:43 38.37099 -103.24065 39972 ft 426 kts 329°
2026-04-25 16:44 38.42554 -103.27067 39987 ft 426 kts 329°
2026-04-25 16:44 38.47976 -103.30067 39893 ft 428 kts 329°
2026-04-25 16:45 38.50739 -103.31602 39348 ft 434 kts 329°
2026-04-25 16:45 38.53513 -103.33140 38737 ft 432 kts 329°
2026-04-25 16:45 38.55337 -103.34151 38339 ft 431 kts 329°
2026-04-25 16:45 38.58967 -103.36161 37618 ft 426 kts 329°
2026-04-25 16:46 38.61689 -103.37673 36979 ft 425 kts 329°
2026-04-25 16:46 38.64407 -103.39185 36331 ft 425 kts 329°
2026-04-25 16:46 38.66203 -103.40185 35877 ft 425 kts 329°
2026-04-25 16:46 38.68007 -103.41191 35405 ft 425 kts 329°
2026-04-25 16:47 38.72496 -103.43696 34102 ft 429 kts 329°
2026-04-25 16:47 38.74353 -103.44732 33551 ft 431 kts 329°
2026-04-25 16:47 38.77081 -103.46255 32715 ft 434 kts 330°
2026-04-25 16:47 38.79851 -103.47835 31926 ft 433 kts 326°
2026-04-25 16:48 38.82302 -103.49939 31200 ft 420 kts 313°
2026-04-25 16:48 38.84303 -103.52640 30500 ft 414 kts 307°
2026-04-25 16:48 38.86208 -103.55409 29820 ft 412 kts 307°
2026-04-25 16:48 38.88068 -103.58123 29242 ft 407 kts 307°
2026-04-25 16:49 38.89947 -103.60842 28638 ft 404 kts 307°
2026-04-25 16:49 38.91811 -103.63514 28043 ft 400 kts 308°
2026-04-25 16:49 38.93669 -103.66160 27450 ft 396 kts 307°
2026-04-25 16:49 38.95513 -103.68782 26869 ft 393 kts 308°
2026-04-25 16:50 38.97340 -103.71379 26283 ft 390 kts 308°
2026-04-25 16:50 38.99151 -103.73954 25699 ft 386 kts 308°
2026-04-25 16:50 39.00943 -103.76506 25121 ft 383 kts 308°
2026-04-25 16:50 39.02731 -103.79056 24381 ft 384 kts 308°
2026-04-25 16:51 39.04498 -103.81577 23780 ft 382 kts 308°
2026-04-25 16:51 39.06278 -103.84119 23165 ft 380 kts 308°
2026-04-25 16:51 39.08040 -103.86636 22591 ft 377 kts 308°
2026-04-25 16:51 39.09205 -103.88300 22204 ft 375 kts 308°
2026-04-25 16:52 39.11509 -103.91597 21508 ft 370 kts 308°
2026-04-25 16:52 39.13200 -103.94018 21119 ft 361 kts 308°
2026-04-25 16:52 39.14871 -103.96435 20592 ft 359 kts 308°
2026-04-25 16:52 39.16530 -103.98847 20039 ft 357 kts 308°
2026-04-25 16:53 39.19771 -104.03567 18990 ft 351 kts 308°
2026-04-25 16:53 39.21366 -104.05890 18475 ft 349 kts 308°
2026-04-25 16:53 39.22971 -104.08229 17948 ft 347 kts 308°
2026-04-25 16:54 39.24566 -104.10553 17434 ft 345 kts 308°
2026-04-25 16:54 39.26147 -104.12858 17079 ft 338 kts 309°
2026-04-25 16:54 39.27677 -104.15086 16932 ft 325 kts 308°
2026-04-25 16:54 39.29152 -104.17240 16782 ft 313 kts 307°
2026-04-25 16:55 39.30260 -104.19553 16513 ft 301 kts 288°
2026-04-25 16:55 39.30788 -104.22160 16137 ft 297 kts 280°
2026-04-25 16:55 39.31197 -104.24780 15732 ft 296 kts 279°
2026-04-25 16:55 39.31589 -104.27382 15349 ft 295 kts 279°
2026-04-25 16:56 39.31983 -104.29975 14949 ft 293 kts 280°
2026-04-25 16:56 39.32379 -104.32527 14558 ft 291 kts 280°
2026-04-25 16:56 39.32782 -104.35093 14170 ft 290 kts 280°
2026-04-25 16:56 39.33184 -104.37643 13783 ft 289 kts 280°
2026-04-25 16:57 39.33573 -104.40102 13673 ft 277 kts 280°
2026-04-25 16:57 39.33828 -104.41707 13573 ft 271 kts 280°
2026-04-25 16:57 39.34329 -104.44875 13294 ft 272 kts 280°
2026-04-25 16:57 39.34711 -104.47311 12957 ft 280 kts 280°
2026-04-25 16:58 39.35102 -104.49809 12592 ft 284 kts 280°
2026-04-25 16:58 39.35488 -104.52279 12303 ft 279 kts 280°
2026-04-25 16:58 39.35868 -104.54705 12183 ft 272 kts 280°
2026-04-25 16:58 39.36340 -104.57057 12038 ft 271 kts 294°
2026-04-25 16:59 39.37418 -104.58955 11907 ft 277 kts 316°
2026-04-25 16:59 39.39120 -104.60258 11691 ft 286 kts 336°
2026-04-25 16:59 39.41006 -104.61110 11488 ft 288 kts 339°
2026-04-25 16:59 39.42907 -104.61925 11261 ft 286 kts 339°
2026-04-25 17:00 39.44790 -104.62743 11030 ft 282 kts 339°
2026-04-25 17:00 39.46012 -104.63282 10885 ft 278 kts 339°
2026-04-25 17:00 39.46562 -104.63525 10823 ft 277 kts 339°
2026-04-25 17:00 39.48221 -104.64261 10636 ft 276 kts 340°
2026-04-25 17:01 39.50115 -104.64674 10414 ft 275 kts 358°
2026-04-25 17:01 39.51902 -104.64629 10233 ft 268 kts
2026-04-25 17:01 39.53733 -104.64574 10027 ft 263 kts
2026-04-25 17:01 39.55541 -104.64528 9828 ft 256 kts 360°
2026-04-25 17:02 39.57310 -104.64496 9620 ft 251 kts
2026-04-25 17:02 39.59037 -104.64470 9436 ft 245 kts 360°
2026-04-25 17:02 39.60715 -104.64448 9291 ft 235 kts
2026-04-25 17:02 39.61798 -104.64433 9158 ft 232 kts
2026-04-25 17:03 39.63897 -104.64409 8851 ft 223 kts
2026-04-25 17:03 39.65427 -104.64390 8596 ft 216 kts
2026-04-25 17:03 39.66894 -104.64370 8453 ft 203 kts
2026-04-25 17:03 39.68284 -104.64355 8245 ft 199 kts
2026-04-25 17:04 39.69632 -104.64340 8001 ft 188 kts
2026-04-25 17:04 39.70895 -104.64324 7768 ft 176 kts
2026-04-25 17:04 39.72084 -104.64312 7555 ft 171 kts
2026-04-25 17:04 39.73285 -104.64292 7340 ft 173 kts
2026-04-25 17:05 39.74476 -104.64277 7098 ft 174 kts
2026-04-25 17:05 39.76710 -104.64252 6668 ft 149 kts
2026-04-25 17:05 39.77737 -104.64238 6468 ft 146 kts
2026-04-25 17:06 39.78641 -104.64236 6265 ft 147 kts
2026-04-25 17:06 39.79653 -104.64231 6067 ft 147 kts
2026-04-25 17:06 39.80679 -104.64209 5921 ft 146 kts
2026-04-25 17:06 39.81703 -104.64192 5709 ft 148 kts
2026-04-25 17:07 39.82722 -104.64174 5510 ft 145 kts
2026-04-25 17:07 39.83723 -104.64164 5373 ft 138 kts
2026-04-25 17:07 39.84514 -104.64155 5363 ft 83 kts
2026-04-25 17:07 39.84901 -104.64152 5360 ft 40 kts 360°
2026-04-25 17:08 39.85165 -104.64202 5357 ft 37 kts 340°
2026-04-25 17:08 39.85384 -104.64341 5355 ft 33 kts 343°
2026-04-25 17:08 39.85601 -104.64354 5353 ft 26 kts 359°
2026-04-25 17:08 39.85775 -104.64361 5350 ft 24 kts 344°
2026-04-25 17:09 39.85918 -104.64458 5350 ft 23 kts 331°
2026-04-25 17:09 39.86063 -104.64563 5351 ft 25 kts 330°
2026-04-25 17:09 39.86222 -104.64681 5346 ft 26 kts 330°
2026-04-25 17:09 39.86375 -104.64792 5350 ft 24 kts 331°
2026-04-25 17:10 39.86478 -104.64879 5355 ft 14 kts 306°
2026-04-25 17:10 39.86491 -104.64996 5358 ft 14 kts 270°
2026-04-25 17:10 39.86492 -104.65134 5360 ft 17 kts 270°
2026-04-25 17:10 39.86493 -104.65293 5363 ft 19 kts 270°
2026-04-25 17:11 39.86494 -104.65470 5367 ft 20 kts 271°
2026-04-25 17:11 39.86496 -104.65659 5371 ft 22 kts 272°
2026-04-25 17:11 39.86498 -104.65860 5376 ft 23 kts 271°
2026-04-25 17:11 39.86499 -104.66059 5380 ft 20 kts 270°
2026-04-25 17:12 39.86500 -104.66210 5380 ft 16 kts 271°
2026-04-25 17:12 39.86470 -104.66335 5379 ft 15 kts 204°
2026-04-25 17:12 39.86365 -104.66343 5379 ft 15 kts 180°
2026-04-25 17:12 39.86254 -104.66344 5379 ft 16 kts 180°
2026-04-25 17:13 39.86143 -104.66347 5379 ft 16 kts 193°
2026-04-25 17:13 39.86116 -104.66373 5379 ft 15 kts 237°
2026-04-25 17:13 39.86124 -104.66592 5377 ft 14 kts 280°
2026-04-25 17:13 39.86127 -104.66720 5375 ft 14 kts 271°
2026-04-25 17:14 39.86128 -104.66840 5373 ft 13 kts 269°
2026-04-25 17:14 39.86127 -104.66944 5377 ft 8 kts 269°
2026-04-25 17:14 39.86158 -104.66997 5373 ft 8 kts 342°
2026-04-25 17:14 39.86213 -104.67000 5373 ft 8 kts
2026-04-25 17:15 39.86247 -104.67000 5376 ft 1 kts 360°
2026-04-25 17:15 39.86251 -104.67000 5376 ft 0 kts